Location: Dattensoll
(49.9928°N, 9.8954°E)
Time: 17:12:38
(UTC+00:00)

Cosmos 158 Rocket - Pass Details

Date: 19 May 2025
Orbit: 694 x 787 km, 74.0° (Epoch: 16 June)

Event Time Altitude Azimuth Distance (km) Brightness Sun altitude
Rises 20:31:22 0° 203° (SSW) 3,231 7.0 -11.1°
Reaches altitude 10° 20:33:43 10° 204° (SSW) 2,319 6.2 -11.3°
Maximum altitude 20:39:01 85° 294° (WNW) 793 4.1 -11.8°
Drops below altitude 10° 20:44:26 10° 23° (NNE) 2,360 6.9 -12.3°
Sets 20:46:50 0° 24° (NNE) 3,292 7.7 -12.6°
